weather.gov     
National Weather Service

Regional Weather Roundup
NWS Homepage
This page is being discontinued on March 12, 2014.
The same data is available at this site. Please update your bookmarks.
Thank you, and we apologize for the inconvenience.
Please send an email to SR-SRH.Webmaster@noaa.gov with any concerns.


Current Version
Previous Version:    01  02  03  04  05  06  07  08  09  10  11  12  13  14  15  16  17  18  19  20  21  22  23  24  25  26  27  28  29  30  
   31  32  33  34  35  36  37  38  39  40  41  42  43  44  45  46  47  48  49  50  51  52  53  
[Printable]
105
ASUS44 KJAN 200410
RWRMS

MISSISSIPPI HOURLY WEATHER ROUNDUP
NATIONAL WEATHER SERVICE JACKSON MS
1000 PM CST FRI DEC 19 2014

NOTE: "FAIR: INDICATES FEW OR NO CLOUDS BELOW 12,000 FEET WITH NO
SIGNIFICANT WEATHER AND/OR OBSTRUCTIONS TO VISIBILITY.

MSZ001>002-007>008-010>013-018>021-025>028-034>036-200500-
NORTHWEST MISSISSIPPI

CITY           SKY/WX    TMP DP  RH WIND       PRES   REMARKS
CLARKSDALE     CLOUDY    41  39  93 NE5       30.25R
CLEVELAND      CLOUDY    44  41  89 NE7       30.22S
GREENWOOD      CLOUDY    44  42  93 NE6       30.21S
GREENVILLE     CLOUDY    45  40  82 N9        30.21R
GRENADA        CLOUDY    41  37  87 CALM      30.23S
OLIVE BRANCH   CLOUDY    39  37  93 NE5       30.24R
OXFORD         MOCLDY    37  34  87 NE3       30.24R
TUNICA         MOCLDY    41  36  81 NE3       30.25S
$$

MSZ003>006-009-014>017-022>024-029>033-037>039-200500-
NORTHEAST MISSISSIPPI

CITY           SKY/WX    TMP DP  RH WIND       PRES   REMARKS
COLUMBUS AFB   CLOUDY    42  40  94 N7        30.22S
CORINTH        DRIZZLE   39  34  81 N5        30.22S
GOLDN TRIANGLE CLOUDY    43  39  87 N10       30.21R
STARKVILLE     CLOUDY    41  41 100 N5        30.21R FOG
TUPELO         LGT RAIN  40  35  83 NE6       30.21F
$$

MSZ040-058-200500-
CENTRAL MISSISSIPPI

CITY           SKY/WX    TMP DP  RH WIND       PRES   REMARKS
JACKSON INTL   CLOUDY    46  43  89 N10       30.18R
JACKSON HAWKNS CLOUDY    45  42  89 N6        30.18R
MERIDIAN KEY   LGT RAIN  44  42  93 NE5       30.16R
MERIDIAN NAS   LGT RAIN  43  41  93 E7        30.17S
RAYMOND        CLOUDY    45  39  81 NE5       30.18S
VICKSBURG      LGT RAIN  47  44  90 N8        30.20R
$$

MSZ059>079-200500-
SOUTH MISSISSIPPI

CITY           SKY/WX    TMP DP  RH WIND       PRES   REMARKS
HATTIESBURG    LGT RAIN  47  45  93 E7        30.14S
MCCOMB         RAIN      46  44  93 E9        30.11S FOG
NATCHEZ        CLOUDY    46  43  87 N8G18     30.16R
PINE BELT      CLOUDY    45  43  93 E5        30.13F
$$

MSZ080>082-200500-
COASTAL MISSISSIPPI

CITY           SKY/WX    TMP DP  RH WIND       PRES   REMARKS
BILOXI         LGT RAIN  48  48 100 VRB5      30.12R
PASCAGOULA     CLOUDY    48  47  96 NE10      30.11S
GULFPORT       LGT RAIN  48  46  93 N10       30.11R
$$




U.S. Dept. of Commerce
NOAA National Weather Service
1325 East West Highway
Silver Spring, MD 20910
E-mail: w-nws.webmaster@noaa.gov
Page last modified: May 16, 2007
NATIONAL WEATHER SERVICE: for Safety, for Work, for Fun - FOR LIFE